Home   Weather   Goch   Past weeks

Flag for Germany Past Weather in Goch, North Rhine-Westphalia, Germany — Yesterday and Last 2 Weeks

Now
30 °F

Clear.


Feels Like: 27 °F
Forecast: 23 / 35 °F
Wind: 3 mph from North

Location: Niederrhein

Current Time: Jan 19, 2017 at 8:43:00 pm

Latest Report: Jan 19, 2017 at 7:50 pm


Visibility: 10 mi

Pressure: 30.63 "Hg

Humidity: 80%

Dew Point: 25 °F

Location of GochLocation

Past Weather in Goch — Graph

°F

Goch Temperature Yesterday

Maximum temperature yesterday: 30 °F (at 1:50 pm)
Minimum temperature yesterday: 25 °F (at 4:50 am)
Average temperature yesterday: 28 °F

High & Low Weather Summary for the Past Weeks

 TemperatureHumidityPressure
High50 °F (Jan 11, 3:20 pm)100% (Jan 4, 7:20 pm)30.74 "Hg (Jan 4, 7:20 pm)
Low18 °F (Jan 6, 6:20 am)52% (Jan 19, 12:50 pm)29.00 "Hg (Jan 12, 11:50 pm)
Average34 °F96%30.20 "Hg
* Reported Jan 4 7:20 pm — Jan 19 7:20 pm, Goch, Weather by CustomWeather, © 2017

Note: Actual official high and low records may vary slightly from our data, if they occured in-between our weather recording intervals... More about our weather records

Advertising

Goch Weather History for the Previous 24 Hours

Scroll right to see more
 ConditionsComfort  
Time TempWeatherWind HumidityBarometerVisibility
7:20 pm
Thu, Jan 19
30 °FClear.3 mph80%30.63 "Hg10 mi
6:20 pm32 °FClear.3 mph75%30.63 "Hg10 mi
5:20 pm32 °FSunny.No wind75%30.63 "Hg10 mi
4:20 pm36 °FSunny.3 mph56%30.63 "Hg10 mi
3:50 pm37 °FSunny.3 mph56%30.63 "Hg10 mi
3:20 pm37 °FSunny.3 mph56%30.63 "Hg10 mi
2:20 pm36 °FSunny.3 mph60%30.63 "Hg10 mi
1:50 pm36 °FSunny.3 mph60%30.63 "Hg10 mi
1:20 pm34 °FPassing clouds.5 mph65%30.63 "HgN/A
12:50 pm36 °FSunny.2 mph52%30.63 "Hg10 mi
12:20 pm34 °FSunny.2 mph60%30.66 "Hg10 mi
11:50 am32 °FClear.1 mph69%30.66 "Hg5 mi
11:20 am30 °FClear.3 mph75%30.66 "Hg4 mi
10:20 am27 °FIce fog.No wind100%30.66 "Hg3 mi
9:50 am25 °FIce fog.No wind100%30.66 "Hg3 mi
9:20 am25 °FIce fog.2 mph100%30.66 "Hg2 mi
8:20 am25 °FIce fog.No wind100%30.66 "Hg3 mi
7:50 am25 °FClear.No wind100%30.63 "Hg4 mi
7:20 am25 °FClear.No wind100%30.63 "Hg4 mi
6:50 am25 °FIce fog.1 mph100%30.63 "Hg3 mi
6:20 am21 °FIce fog.No wind100%30.63 "Hg2 mi
5:20 am23 °FIce fog.No wind100%30.66 "Hg3 mi
4:50 am23 °FIce fog.No wind100%30.66 "Hg3 mi
11:50 pm
Wed, Jan 18
27 °FClear.No wind100%30.66 "Hg4 mi
11:20 pm27 °FClear.3 mph100%30.66 "Hg4 mi
10:50 pm27 °FClear.No wind100%30.66 "Hg6 mi
10:20 pm27 °FClear.No wind100%30.66 "Hg6 mi
9:50 pm27 °FClear.No wind100%30.66 "Hg5 mi
9:20 pm28 °FClear.1 mph100%30.66 "Hg5 mi
8:20 pm28 °FClear.2 mph100%30.66 "Hg5 mi
Weather by CustomWeather, © 2017

See weather overviewHow to use our weather pages